Location: Unspecified
(40.4667°N, 0.0000°E)
Time: 13:25:59
(UTC+00:00)

ISS - Pass Details

Date: 28 May 2019
Orbit: 407 x 418 km, 51.6° (Epoch: 24 June)

Event Time Altitude Azimuth Distance (km) Brightness Sun altitude
Rises 18:50:50 0° 282° (WNW) 2,342 2.1 4.3°
Reaches altitude 10° 18:53:32 10° 306° (NW) 1,485 1.2 3.8°
Maximum altitude 18:55:40 16° 345° (NNW) 1,187 -0.8 3.4°
Drops below altitude 10° 18:57:48 10° 25° (NNE) 1,492 -0.9 3.1°
Enters shadow 19:05:28 -13° 64° (ENE) 4,225 1.0 1.8°
Exits shadow 19:38:34 -77° 109° (ESE) 12,864 3.6 -3.7°
Sets 20:38:05 0° 65° (ENE) 2,362 -0.2 -12.6°
